Regional Weather Roundup
Issued by NWS

Home | Current Version | Previous Version | Text Only | Print | Product List | Glossary Off
Versions: 1 2 3 4 5 6 7 8 9 10 11 12 13 14 15 16 17 18 19 20 21 22 23 24 25 26 27 28 29 30 31 32 33 34 35 36 37 38 39 40 41 42 43 44 45 46 47 48 49 50

000
ASUS43 KMPX 250901
RWRMN
WEATHER ROUNDUP FOR MINNESOTA
NATIONAL WEATHER SERVICE TWIN CITIES/CHANHASSEN MN
400 AM CDT WED APR 25 2018


NOTE: "FAIR" INDICATES FEW OR NO CLOUDS BELOW 12,000 FEET WITH NO
SIGNIFICANT WEATHER AND/OR OBSTRUCTIONS TO VISIBILITY. N/A MEANS
CURRENT SKY AND/OR WEATHER CONDITIONS ARE NOT AVAILABLE.

MNZ060>063-068>070-251000-
   Twin Cities Metro

CITY           SKY/WX    TMP DP  RH WIND       PRES   REMARKS
TWIN CITIES    FAIR      39  27  62 N8        30.26R
ST PAUL        FAIR      38  27  64 N9        30.27R
CRYSTAL        FAIR      36  24  62 N6        30.25S
BLAINE         FAIR      36  27  69 N6        30.26R
LAKEVILLE      FAIR      37  27  65 N6        30.23S
EDEN PRAIRIE   FAIR      38  25  59 N6        30.24S
SOUTH ST PAUL  FAIR      40  26  58 N5        30.24S
LAKE ELMO      FAIR      37  28  70 N3        30.25S
$$
MNZ001>005-007-008-013>017-022>024-027-028-251000-
   Northwest Minnesota

CITY           SKY/WX    TMP DP  RH WIND       PRES   REMARKS
BEMIDJI        FAIR      23  19  86 CALM      30.26F
HALLOCK        FAIR      30  27  86 S7        30.22F WCI  23
ROSEAU         FAIR      34  27  75 MISG      30.23F
WARROAD        FAIR      34  25  69 S8        30.23F WCI  27
THIEF RVR FALL FAIR      33  24  69 S6        30.26F WCI  28
CROOKSTON      FAIR      30  27  86 S6        30.27F WCI  24
FOSSTON        FAIR      27  19  74 SE3       30.27S
DETROIT LAKES  FAIR      32  28  86 SE3       30.28F
MOORHEAD       FAIR      30  25  80 CALM      30.29F
PARK RAPIDS    FAIR      25  20  81 CALM      30.27F
MAHNOMEN       FAIR      29  24  82 S3        30.27S
$$
MNZ006-009>011-018-025>026-251000-
   North Central Minnesota

CITY           SKY/WX    TMP DP  RH WIND       PRES   REMARKS
BAUDETTE       FAIR      29  22  75 SW5       30.24F WCI  24
FLAG ISLAND    FAIR      28  21  74 S5        30.21F WCI  23
INTL FALLS     FAIR      22  20  92 CALM      30.24F
WASKISH        FAIR      23  21  93 CALM      30.26F
BIG FORK       FAIR      23  21  93 CALM      30.26S
LONGVILLE      FAIR      25  21  86 CALM      30.28S
GRAND RAPIDS   FAIR      26  22  84 SE3       30.29S
CRANE LAKE     FAIR      19  19 100 CALM      30.28F
ORR            FAIR      21  19  93 CALM      30.23F
COOK           FAIR      23  21  93 CALM      30.26F
WALKER         FAIR      25  19  80 W3        30.27F
$$
MNZ012-019>021-037-251000-
   Northeast Minnesota

CITY           SKY/WX    TMP DP  RH WIND       PRES   REMARKS
DULUTH         FAIR      29  20  69 N6        30.25S WCI  23
ELY            FAIR      23  21  93 CALM      30.25S
HIBBING        FAIR      22  19  89 CALM      30.26S
EVELETH        FAIR      24  21  86 CALM      30.27S
DULUTH HARBOR  FAIR      34  27  75 NW6       30.28F WCI  29
TWO HARBORS    FAIR      32  25  74 N3        30.24S
SILVER BAY     FAIR      27  23  86 CALM      30.25S
GRAND MARAIS     N/A     28  23  81 NW3       30.27F
G MARAIS ARPRT FAIR      27  18  69 NW6       30.22S WCI  20
$$
MNZ029>031-032-039>041-046>048-054>057-064-251000-
   West Central Minnesota

CITY           SKY/WX    TMP DP  RH WIND       PRES   REMARKS
FERGUS FALLS   FAIR      36  25  64 E3        30.28S
WHEATON        CLEAR     32  28  86 W3        30.32F
MORRIS         CLEAR     30  28  93 CALM      30.29S
ALEXANDRIA     FAIR      33  22  63 NE5       30.29S WCI  29
ELBOW LAKE     FAIR      33  25  72 NE5       30.30S WCI  28
WADENA         FAIR      27  23  86 CALM      30.28S
GLENWOOD       FAIR      30  25  80 N5        30.29S WCI  25
APPLETON       CLEAR     28  27  93 CALM      30.30S
BENSON         CLEAR     27  25  93 CALM      30.31S
ORTONVILLE     CLEAR     30  27  86 NW3       30.30S
WILLMAR        FAIR      34  27  75 NE3       30.31S
$$
MNZ033>034-036-042>043-049>051-058-059-251000-
   Central Minnesota

CITY           SKY/WX    TMP DP  RH WIND       PRES   REMARKS
ST CLOUD       FAIR      31  26  82 N5        30.28S WCI  26
SAUK CENTRE    FAIR      32  23  70 N3        30.29S
PAYNESVILLE    FAIR      33  28  81 CALM      30.29S
AITKIN         FAIR      21  19  93 CALM      30.26F
PINE RIVER     FAIR      25  19  80 CALM      30.30F
BRAINERD       FAIR      29  23  78 CALM      30.28F
STAPLES        FAIR      25  21  86 CALM      30.29S
LONG PRAIRIE   FAIR      32  25  74 N3        30.29S
LITTLE FALLS   FAIR      32  19  59 CALM      30.29S
LITCHFIELD     FAIR      36  28  75 N3        30.28S
BUFFALO        FAIR      35  26  68 N3        30.28R
MAPLE LAKE     FAIR      34  29  82 N5        30.28S WCI  29
HUTCHINSON     FAIR      35  29  79 N5        30.28S WCI  31
$$
MNZ037-044-045-052-053-251000-
   East Central Minnesota

CITY           SKY/WX    TMP DP  RH WIND       PRES   REMARKS
PRINCETON      FAIR      34  25  69 N3        30.28S
MORA           FAIR      32  25  74 CALM      30.29S
CAMBRIDGE      FAIR      36  25  64 CALM      30.27S
RUSH CITY      FAIR      31  24  74 N5        30.27S WCI  26
MOOSE LAKE     FAIR      30  23  74 CALM      30.25F
HINCKLEY       FAIR      32  25  74 N5        30.27F WCI  27
CLOQUET        FAIR      28  19  69 NW3       30.26S
MCGREGOR       FAIR      27  21  80 NW3       30.28S
$$
MNZ071>073-080-081-089-090-097-098-251000-
   Southwest Minnesota

CITY           SKY/WX    TMP DP  RH WIND       PRES   REMARKS
MONTEVIDEO     CLEAR     32  28  86 NE6       30.30S WCI  26
GRANITE FALLS  CLEAR     37  31  79 N7        30.30S
CANBY          CLEAR     34  30  86 NW8       30.31S WCI  27
MARSHALL       CLEAR     33  29  85 NW8       30.29S WCI  26
REDWOOD FALLS  CLEAR     35  28  75 N8        30.27S WCI  29
OLIVIA         CLEAR     34  32  93 N7        30.27S WCI  28
PIPESTONE      CLEAR    N/A N/A N/A CALM      30.26F
WINDOM         CLEAR     34  19  55 NW3       30.25S
WORTHINGTON    CLEAR     34  30  85 N10       30.26S WCI  26
JACKSON        CLEAR     34  30  86 N6        30.25S WCI  29
TRACY          CLEAR     35  32  89 NW6       30.27S WCI  30
SLAYTON        CLEAR     35  30  83 N12       30.26F WCI  27
$$
MNZ065>067-074>077-082>085-091>093-251000-
   South Central Minnesota

CITY           SKY/WX    TMP DP  RH WIND       PRES   REMARKS
MANKATO        FAIR      37  29  72 N12       30.24S
NEW ULM        CLEAR     37  27  65 N7        30.25S
ST JAMES       CLEAR     34  30  86 NW5       30.26R WCI  30
FAIRMONT       PTCLDY    37  31  78 NW8       30.24S
GLENCOE        FAIR      35  31  86 NW6       30.26S WCI  29
OWATONNA       FAIR      37  28  70 N8        30.21S
WASECA         FAIR      34  30  86 N10       30.23S WCI  26
ALBERT LEA     FAIR      39  28  65 N7        30.20S
$$
MNZ078>079-086>088-094>096-251000-
   Southeast Minnesota

CITY           SKY/WX    TMP DP  RH WIND       PRES   REMARKS
ROCHESTER      FAIR      36  32  85 N9        30.19S
RED WING       FAIR      39  25  56 NE3       30.22R
STANTON        FAIR      38  29  71 CALM      30.22S
DODGE CENTER   FAIR      36  28  75 N8        30.20S
WINONA         FAIR      37  34  87 NW6       30.19R
AUSTIN         FAIR      37  30  75 N5        30.19S
PRESTON        FAIR      38  32  81 N6        30.18S
$$
ABBREVIATIONS USED IN REMARKS
   TC - TEMPERATURES IN CELSIUS
  WCI - WIND CHILL INDEX
   HX - HEAT INDEX
  VSB - VISIBILITY
$$




USA.gov is the U.S. government's official web portal to all federal, state and local government web resources and services.